Home   Weather   Tilburg   Past weeks

Flag for Netherlands Past Weather in Tilburg, Netherlands — Yesterday and Last 2 Weeks

Now
57 °F

Cool.


Feels Like: 56 °F
Forecast: 52 / 66 °F
Wind: 7 mph from Southwest

Location: Gilze-Rijen

Current Time: Aug 20, 2017 at 12:52:06 am

Latest Report: Aug 20, 2017 at 12:25 am


Visibility: N/A

Pressure: 30.09 "Hg

Humidity: 82%

Dew Point: 52 °F

Location of TilburgLocation

Past Weather in Tilburg — Graph

°F

Tilburg Temperature Yesterday

Maximum temperature yesterday: 68 °F (at 3:55 pm)
Minimum temperature yesterday: 54 °F (at 12:25 am)
Average temperature yesterday: 60 °F

High & Low Weather Summary for the Past Weeks

 TemperatureHumidityPressure
High77 °F (Aug 14, 1:55 pm)100% (Aug 6, 2:55 am)30.21 "Hg (Aug 6, 2:55 am)
Low48 °F (Aug 7, 4:25 am)41% (Aug 7, 4:25 pm)29.74 "Hg (Aug 8, 12:38 pm)
Average62 °F81%30.01 "Hg
* Reported Aug 4 11:25 pm — Aug 19 11:25 pm, Tilburg. Weather by CustomWeather, © 2017

Note: Actual official high and low records may vary slightly from our data, if they occured in-between our weather recording intervals... More about our weather records

Advertising

Tilburg Weather History for the Previous 24 Hours

Scroll right to see more
 ConditionsComfort  
Time TempWeatherWind HumidityBarometerVisibility
11:25 pm
Sat, Aug 19
59 °FCool.6 mph77%30.09 "HgN/A
10:55 pm59 °FPassing clouds.5 mph77%30.09 "HgN/A
10:25 pm61 °FOvercast.6 mph72%30.09 "HgN/A
9:55 pm61 °FOvercast.8 mph72%30.09 "HgN/A
9:25 pm61 °FOvercast.7 mph72%30.07 "HgN/A
8:55 pm61 °FOvercast.5 mph72%30.07 "HgN/A
8:25 pm63 °FPartly sunny.5 mph68%30.07 "HgN/A
7:55 pm64 °FPassing clouds.8 mph64%30.07 "HgN/A
7:25 pm64 °FMild.8 mph60%30.07 "HgN/A
6:55 pm64 °FPartly sunny.14 mph56%30.07 "HgN/A
6:25 pm64 °FPassing clouds.14 mph56%30.07 "HgN/A
5:55 pm66 °FMild.16 mph52%30.04 "HgN/A
4:55 pm66 °FPassing clouds.15 mph56%30.04 "HgN/A
4:25 pm66 °FMostly cloudy.15 mph64%30.04 "HgN/A
3:55 pm68 °FScattered clouds.13 mph64%30.04 "HgN/A
3:25 pm66 °FPartly sunny.13 mph68%30.04 "HgN/A
2:55 pm64 °FBroken clouds.10 mph78%30.04 "HgN/A
2:35 pm63 °FDrizzle. Broken clouds.8 mph83%30.04 "HgN/A
2:25 pm63 °FPassing clouds.9 mph83%30.01 "HgN/A
1:55 pm59 °FDrizzle. More clouds than sun.8 mph88%30.01 "HgN/A
1:25 pm57 °FRain. Overcast.8 mph94%30.01 "HgN/A
1:00 pm59 °FRain showers. More clouds than sun.9 mph88%30.01 "Hg6 mi
12:25 pm63 °FLight rain. Cloudy.12 mph68%29.98 "HgN/A
11:55 am64 °FPartly sunny.13 mph60%29.98 "HgN/A
11:25 am63 °FPassing clouds.10 mph73%29.98 "HgN/A
11:12 am61 °FPartly sunny.14 mph77%29.98 "HgN/A
10:55 am63 °FBroken clouds.12 mph73%29.98 "HgN/A
10:39 am61 °FScattered clouds.10 mph83%29.98 "HgN/A
10:18 am59 °FMore clouds than sun.12 mph82%29.98 "HgN/A
9:41 am59 °FCloudy.12 mph82%29.95 "HgN/A
9:10 am59 °FMore clouds than sun.12 mph82%29.95 "HgN/A
9:02 am57 °FMostly cloudy.13 mph88%29.95 "HgN/A
8:40 am57 °FOvercast.14 mph82%29.95 "HgN/A
8:26 am57 °FMostly cloudy.12 mph82%29.95 "HgN/A
7:55 am57 °FPartly sunny.13 mph82%29.92 "HgN/A
7:44 am55 °FPassing clouds.14 mph88%29.92 "HgN/A
7:25 am57 °FBroken clouds.13 mph82%29.92 "HgN/A
6:55 am55 °FBroken clouds.12 mph88%29.92 "HgN/A
6:25 am55 °FPartly cloudy.13 mph82%29.92 "HgN/A
6:19 am55 °FPartly cloudy.13 mph82%29.92 "HgN/A
5:55 am55 °FPartly cloudy.14 mph82%29.92 "HgN/A
5:25 am55 °FPassing clouds.13 mph82%29.89 "HgN/A
4:55 am55 °FPassing clouds.13 mph88%29.89 "HgN/A
4:25 am54 °FCool.10 mph88%29.92 "HgN/A
3:55 am55 °FPassing clouds.10 mph82%29.92 "HgN/A
3:25 am54 °FCool.9 mph88%29.92 "HgN/A
2:55 am54 °FCool.9 mph88%29.92 "HgN/A
2:25 am55 °FCool.8 mph82%29.92 "HgN/A
1:55 am55 °FPartly cloudy.8 mph82%29.92 "HgN/A
1:25 am55 °FPassing clouds.6 mph82%29.92 "HgN/A
12:55 am55 °FPassing clouds.7 mph88%29.92 "HgN/A
12:25 am54 °FCool.7 mph88%29.92 "HgN/A
Weather by CustomWeather, © 2017

See weather overviewHow to use our weather pages